Time,TemperatureF,DewpointF,PressureIn,WindDirection,WindDirectionDegrees,WindSpeedMPH,WindSpeedGustMPH,Humidity,HourlyPrecipIn,Conditions,Clouds,dailyrainin,SoftwareType,DateUTC
2015-03-05 00:02:00,30.7,24.0,28.28,North,360,2.0,6.0,75,0.00,,,0.00,Rainwise IP-100,2015-03-05 05:02:00,
2015-03-05 00:07:00,30.7,24.0,28.28,NNW,337,2.0,7.0,74,0.00,,,0.00,Rainwise IP-100,2015-03-05 05:07:00,
2015-03-05 00:12:00,30.6,23.0,28.28,WNW,292,2.0,8.0,73,0.00,,,0.00,Rainwise IP-100,2015-03-05 05:12:00,
2015-03-05 00:17:00,30.6,23.0,28.28,West,270,6.0,11.0,73,0.00,,,0.00,Rainwise IP-100,2015-03-05 05:17:00,
2015-03-05 00:22:00,30.5,23.0,28.27,NNW,337,3.0,11.0,72,0.00,,,0.00,Rainwise IP-100,2015-03-05 05:22:00,
2015-03-05 00:27:00,30.4,23.0,28.27,West,270,6.0,6.0,72,0.00,,,0.00,Rainwise IP-100,2015-03-05 05:27:00,
2015-03-05 00:32:00,30.4,23.0,28.28,NW,315,6.0,10.0,72,0.00,,,0.00,Rainwise IP-100,2015-03-05 05:32:00,
2015-03-05 00:37:00,30.4,23.0,28.28,NW,315,8.0,10.0,72,0.00,,,0.00,Rainwise IP-100,2015-03-05 05:37:00,
2015-03-05 00:42:00,30.4,23.0,28.29,North,360,5.0,11.0,70,0.00,,,0.00,Rainwise IP-100,2015-03-05 05:42:00,
2015-03-05 00:47:00,30.3,23.0,28.29,WSW,247,9.0,12.0,72,0.00,,,0.00,Rainwise IP-100,2015-03-05 05:47:00,
2015-03-05 00:52:00,30.3,23.0,28.30,SSW,202,2.0,10.0,71,0.00,,,0.00,Rainwise IP-100,2015-03-05 05:52:00,
2015-03-05 00:57:00,30.2,23.0,28.29,North,360,2.0,11.0,71,0.00,,,0.00,Rainwise IP-100,2015-03-05 05:57:00,
2015-03-05 01:02:00,30.1,23.0,28.29,WNW,292,7.0,8.0,71,0.00,,,0.00,Rainwise IP-100,2015-03-05 06:02:00,
2015-03-05 01:07:00,29.9,23.0,28.31,South,180,1.0,12.0,71,0.00,,,0.00,Rainwise IP-100,2015-03-05 06:07:00,
2015-03-05 01:12:00,29.8,21.0,28.30,NNW,337,3.0,9.0,67,0.00,,,0.00,Rainwise IP-100,2015-03-05 06:12:00,
2015-03-05 01:17:00,29.7,21.0,28.30,NW,315,11.0,12.0,64,0.00,,,0.00,Rainwise IP-100,2015-03-05 06:17:00,
2015-03-05 01:22:00,29.6,18.0,28.30,NNE,22,9.0,15.0,61,0.00,,,0.00,Rainwise IP-100,2015-03-05 06:22:00,
2015-03-05 01:27:00,29.5,18.0,28.30,WNW,292,7.0,21.0,61,0.00,,,0.00,Rainwise IP-100,2015-03-05 06:27:00,
2015-03-05 01:32:00,29.4,18.0,28.30,SW,225,7.0,12.0,62,0.00,,,0.00,Rainwise IP-100,2015-03-05 06:32:00,
2015-03-05 01:37:00,29.3,18.0,28.30,West,270,6.0,11.0,62,0.00,,,0.00,Rainwise IP-100,2015-03-05 06:37:00,
2015-03-05 01:42:00,29.2,18.0,28.30,South,180,4.0,12.0,62,0.00,,,0.00,Rainwise IP-100,2015-03-05 06:42:00,
2015-03-05 01:47:00,29.1,18.0,28.30,SSW,202,4.0,14.0,61,0.00,,,0.00,Rainwise IP-100,2015-03-05 06:47:00,
2015-03-05 01:52:00,28.9,18.0,28.30,NNE,22,2.0,12.0,61,0.00,,,0.00,Rainwise IP-100,2015-03-05 06:52:00,
2015-03-05 01:57:00,28.9,18.0,28.30,West,270,12.0,12.0,61,0.00,,,0.00,Rainwise IP-100,2015-03-05 06:57:00,
2015-03-05 02:02:00,28.8,18.0,28.29,NNW,337,2.0,14.0,62,0.00,,,0.00,Rainwise IP-100,2015-03-05 07:02:00,
2015-03-05 02:07:00,28.7,18.0,28.29,West,270,5.0,11.0,63,0.00,,,0.00,Rainwise IP-100,2015-03-05 07:07:00,
2015-03-05 02:12:00,28.5,18.0,28.29,SSE,157,2.0,9.0,64,0.00,,,0.00,Rainwise IP-100,2015-03-05 07:12:00,
2015-03-05 02:17:00,28.5,18.0,28.30,WNW,292,2.0,15.0,63,0.00,,,0.00,Rainwise IP-100,2015-03-05 07:17:00,
2015-03-05 02:22:00,28.4,18.0,28.30,WNW,292,2.0,8.0,64,0.00,,,0.00,Rainwise IP-100,2015-03-05 07:22:00,
2015-03-05 02:27:00,28.3,18.0,28.31,WNW,292,1.0,6.0,65,0.00,,,0.00,Rainwise IP-100,2015-03-05 07:27:00,
2015-03-05 02:32:00,28.2,18.0,28.31,NW,315,3.0,5.0,65,0.00,,,0.00,Rainwise IP-100,2015-03-05 07:32:00,
2015-03-05 02:37:00,28.1,18.0,28.31,WNW,292,4.0,4.0,66,0.00,,,0.00,Rainwise IP-100,2015-03-05 07:37:00,
2015-03-05 02:42:00,28.1,18.0,28.31,NW,315,4.0,7.0,66,0.00,,,0.00,Rainwise IP-100,2015-03-05 07:42:00,
2015-03-05 02:47:00,28.1,18.0,28.31,WSW,247,1.0,7.0,66,0.00,,,0.00,Rainwise IP-100,2015-03-05 07:47:00,
2015-03-05 02:52:00,28.0,18.0,28.30,NW,315,0.0,8.0,68,0.00,,,0.00,Rainwise IP-100,2015-03-05 07:52:00,
2015-03-05 02:57:00,27.9,18.0,28.30,NW,315,9.0,11.0,66,0.00,,,0.00,Rainwise IP-100,2015-03-05 07:57:00,
2015-03-05 03:02:00,27.9,18.0,28.30,WNW,292,2.0,12.0,68,0.00,,,0.00,Rainwise IP-100,2015-03-05 08:02:00,
2015-03-05 03:07:00,27.7,18.0,28.30,WNW,292,0.0,6.0,69,0.00,,,0.00,Rainwise IP-100,2015-03-05 08:07:00,
2015-03-05 03:12:00,27.7,18.0,28.29,NNW,337,2.0,10.0,68,0.00,,,0.00,Rainwise IP-100,2015-03-05 08:12:00,
2015-03-05 03:17:00,27.7,18.0,28.30,NNW,337,1.0,6.0,67,0.00,,,0.00,Rainwise IP-100,2015-03-05 08:17:00,
2015-03-05 03:22:00,27.6,18.0,28.30,NNW,337,2.0,10.0,68,0.00,,,0.00,Rainwise IP-100,2015-03-05 08:22:00,
2015-03-05 03:27:00,27.6,18.0,28.30,NW,315,6.0,7.0,68,0.00,,,0.00,Rainwise IP-100,2015-03-05 08:27:00,
2015-03-05 03:32:00,27.5,18.0,28.31,NNW,337,2.0,10.0,68,0.00,,,0.00,Rainwise IP-100,2015-03-05 08:32:00,
2015-03-05 03:37:00,27.5,18.0,28.32,NW,315,4.0,9.0,69,0.00,,,0.00,Rainwise IP-100,2015-03-05 08:37:00,
2015-03-05 03:42:00,27.3,21.0,28.33,ENE,67,0.0,10.0,70,0.00,,,0.00,Rainwise IP-100,2015-03-05 08:42:00,
2015-03-05 03:47:00,27.4,18.0,28.34,SW,225,7.0,14.0,68,0.00,,,0.00,Rainwise IP-100,2015-03-05 08:47:00,
2015-03-05 03:52:00,27.3,18.0,28.33,WNW,292,3.0,12.0,67,0.00,,,0.00,Rainwise IP-100,2015-03-05 08:52:00,
2015-03-05 03:57:00,27.2,18.0,28.33,WSW,247,4.0,13.0,68,0.00,,,0.00,Rainwise IP-100,2015-03-05 08:57:00,
2015-03-05 04:02:00,27.1,18.0,28.33,NW,315,2.0,11.0,69,0.00,,,0.00,Rainwise IP-100,2015-03-05 09:02:00,